Torna al catalogo

STARLINK-3712

AttivoComunicazioniVLEO
NORAD 52090·PAYLOAD·🇺🇸 United States

Lanciato Mar 19, 2022 da Cape Canaveral Space Force Station

Loading…

Prossimi Passaggi (prossime 24 ore)

TLE

AggiornatoSource: CelesTrak SupGP

Epoca: Sep 14, 2026, 20:49 UTC

1 52090C 22029C   26257.86784722 -.00015686  00000+0 -47609-3 0  2570
2 52090  53.1585 308.0521 0001283  84.1147 291.6967 15.33550118    16

Traccia STARLINK-3712 in tempo reale con AllMySat

Download on the App Store